Starlink 31023

operational
NORAD ID: 58522 Int'l Des: 2023-191 Owner: SPXS Country: US Constellation: starlink
LEOCIRCULAR

About Starlink 31023

Description loading...

Live Position

Loading 3D Globe...

Upcoming Passes

Altitude History

Altitude vs Time

uPlot chart will show altitude changes over time

Two-Line Element Set

1 58522U 23191Q 25314.57923531 .00001080 00000-0 95016-4 0 9992
2 58522 43.0042 33.2242 0001072 281.3886 78.6836 15.02539265107520
Epoch: Nov 10, 2025 • Age: 24 hours

Current Status

Altitude 558.1 km
Velocity 7.59 km/s
Sub-Earth Point 8.96°N, 138.13°E
Launch Date Dec 7, 2023
Age 1.9 years
Type internet

Technical Details

Classification Payload
Mass 730.00 kg
Dry Mass 700.00 kg
Total Mass 730.00 kg
Length 0.30 m
Diameter 4.10 m
Span 29.00 m
Shape Box + pan
Manufacturer SPXS
Bus Type Starlink V2M
Phase Status In Orbit
Owner/State SPXS/US

Large Constellations

Loading constellations...